When you browse on this site, cookies collect data to enhance your experience and personalize the content and advertising you see.
Visit our Privacy Policy to learn more. By continuing to use the site, you agree to this use of cookies and data.
  • In Portugal
  • List of Countries
  • For 7 days
  • Water Temperature
  • Satellite Maps
  • Weather Map
  • Weather Widgets
  • user-avatar
    Login

    Hourly Weather Lipno

    Today, 17 February, Sunday

    Time Temperature Precipitation Wind Pressure Humidity
    00:00 +1°C° 0 mm 6 mps 750 mmHg 82%
    01:00 -1°C° 0 mm 6 mps 750 mmHg 85%
    02:00 0°C° 0 mm 5 mps 750 mmHg 87%
    03:00 0°C° 0 mm 5 mps 750 mmHg 88%
    04:00 -1°C° 0 mm 5 mps 751 mmHg 88%
    05:00 -1°C° 0 mm 5 mps 751 mmHg 89%
    06:00 -2°C° 0 mm 5 mps 751 mmHg 87%
    07:00 -2°C° 0 mm 5 mps 752 mmHg 85%
    08:00 -4°C° 0 mm 6 mps 752 mmHg 82%
    09:00 -3°C° 0 mm 6 mps 753 mmHg 79%
    10:00 -2°C° 0 mm 6 mps 753 mmHg 76%
    11:00 -2°C° 0 mm 6 mps 754 mmHg 73%
    12:00 -1°C° 0 mm 6 mps 754 mmHg 73%
    13:00 -1°C° 0 mm 6 mps 755 mmHg 72%
    14:00 -1°C° 0 mm 6 mps 756 mmHg 72%
    15:00 -1°C° 0 mm 6 mps 756 mmHg 73%
    16:00 -1°C° 0 mm 5 mps 757 mmHg 75%
    17:00 -2°C° 0 mm 5 mps 757 mmHg 77%
    18:00 -2°C° 0 mm 5 mps 758 mmHg 78%
    19:00 -3°C° 0 mm 4 mps 759 mmHg 79%
    20:00 -3°C° 0 mm 4 mps 759 mmHg 81%
    21:00 -4°C° 0 mm 4 mps 760 mmHg 82%
    22:00 -4°C° 0 mm 3 mps 761 mmHg 83%
    23:00 -5°C° 0 mm 3 mps 761 mmHg 84%

    Tomorrow, 18 February, Monday

    Time Temperature Precipitation Wind Pressure Humidity
    00:00 -5°C° 0 mm 3 mps 762 mmHg 85%
    01:00 -5°C° 0 mm 2 mps 762 mmHg 87%
    02:00 -5°C° 0 mm 2 mps 763 mmHg 88%
    03:00 -6°C° 0 mm 2 mps 763 mmHg 89%
    04:00 -6°C° 0 mm 2 mps 763 mmHg 89%
    05:00 -4°C° 0 mm 1 mps 763 mmHg 90%
    06:00 -4°C° 0 mm 1 mps 764 mmHg 89%
    07:00 -6°C° 0 mm 1 mps 764 mmHg 88%
    08:00 -6°C° 0 mm 0 mps 764 mmHg 87%
    09:00 -5°C° 0 mm 0 mps 764 mmHg 82%
    10:00 -2°C° 0 mm 1 mps 764 mmHg 76%
    11:00 -1°C° 0 mm 1 mps 765 mmHg 71%
    12:00 -1°C° 0 mm 1 mps 764 mmHg 69%
    13:00 -2°C° 0 mm 2 mps 764 mmHg 68%
    14:00 -2°C° 0 mm 2 mps 763 mmHg 66%
    15:00 -2°C° 0 mm 3 mps 763 mmHg 69%
    16:00 -2°C° 0 mm 3 mps 762 mmHg 71%
    17:00 -4°C° 0 mm 3 mps 762 mmHg 74%
    18:00 -4°C° 0 mm 3 mps 762 mmHg 74%
    19:00 -4°C° 0 mm 4 mps 761 mmHg 75%
    20:00 -4°C° 0 mm 4 mps 761 mmHg 75%
    21:00 -4°C° 0 mm 4 mps 760 mmHg 76%
    22:00 -3°C° 0 mm 4 mps 760 mmHg 77%
    23:00 -3°C° 0 mm 4 mps 759 mmHg 78%

    Day after tomorrow, 19 February, Tuesday

    Time Temperature Precipitation Wind Pressure Humidity
    00:00 -3°C° 0 mm 4 mps 759 mmHg 81%
    01:00 -4°C° 0 mm 5 mps 758 mmHg 85%
    02:00 -2°C° 0 mm 5 mps 758 mmHg 88%
    03:00 -2°C° 0 mm 5 mps 757 mmHg 89%
    04:00 -1°C° 0 mm 5 mps 756 mmHg 89%
    05:00 -1°C° 0 mm 5 mps 756 mmHg 90%
    06:00 -1°C° 0 mm 4 mps 755 mmHg 90%
    07:00 0°C° 0 mm 4 mps 755 mmHg 91%
    08:00 0°C° 0 mm 4 mps 754 mmHg 91%
    09:00 0°C° 0 mm 4 mps 754 mmHg 90%
    10:00 0°C° 0 mm 4 mps 753 mmHg 90%
    11:00 0°C° 0 mm 4 mps 753 mmHg 89%
    12:00 0°C° 0 mm 4 mps 752 mmHg 89%
    13:00 +1°C° 0 mm 4 mps 752 mmHg 88%
    14:00 +1°C° 0 mm 4 mps 751 mmHg 87%
    15:00 +1°C° 0 mm 4 mps 750 mmHg 87%
    16:00 0°C° 0 mm 4 mps 749 mmHg 88%
    17:00 0°C° 0 mm 4 mps 749 mmHg 88%
    18:00 0°C° 0.1 mm 4 mps 748 mmHg 88%
    19:00 0°C° 0.1 mm 4 mps 748 mmHg 88%
    20:00 0°C° 0.1 mm 5 mps 747 mmHg 88%
    21:00 0°C° 0.5 mm 5 mps 747 mmHg 89%
    22:00 0°C° 0.5 mm 4 mps 746 mmHg 90%
    23:00 +1°C° 0.5 mm 4 mps 746 mmHg 91%

    20 February, Wednesday

    Time Temperature Precipitation Wind Pressure Humidity
    00:00 +1°C° 0 mm 4 mps 746 mmHg 92%
    01:00 +1°C° 0 mm 4 mps 745 mmHg 92%
    02:00 +1°C° 0 mm 4 mps 745 mmHg 93%
    03:00 +1°C° 0.1 mm 5 mps 745 mmHg 92%
    04:00 +1°C° 0.1 mm 5 mps 744 mmHg 92%
    05:00 +1°C° 0.1 mm 5 mps 744 mmHg 91%
    06:00 +1°C° 0.2 mm 5 mps 744 mmHg 90%
    07:00 +1°C° 0.2 mm 5 mps 743 mmHg 88%
    08:00 0°C° 0.2 mm 5 mps 743 mmHg 87%
    09:00 +1°C° 0.2 mm 6 mps 743 mmHg 86%
    10:00 +1°C° 0.2 mm 6 mps 743 mmHg 86%
    11:00 +1°C° 0.2 mm 6 mps 743 mmHg 85%
    12:00 -1°C° 0.1 mm 6 mps 743 mmHg 79%
    13:00 -1°C° 0.1 mm 6 mps 743 mmHg 72%
    14:00 -2°C° 0.1 mm 7 mps 743 mmHg 65%
    15:00 -2°C° 0.1 mm 7 mps 744 mmHg 71%
    16:00 -3°C° 0.1 mm 7 mps 744 mmHg 76%
    17:00 -4°C° 0.1 mm 7 mps 745 mmHg 81%
    18:00 -4°C° 0.3 mm 7 mps 745 mmHg 82%
    19:00 -5°C° 0.3 mm 8 mps 746 mmHg 82%
    20:00 -5°C° 0.3 mm 8 mps 747 mmHg 82%
    21:00 -6°C° 0.1 mm 8 mps 747 mmHg 80%
    22:00 -6°C° 0.1 mm 8 mps 748 mmHg 78%
    23:00 -7°C° 0.1 mm 8 mps 749 mmHg 76%

    21 February, Thursday

    Time Temperature Precipitation Wind Pressure Humidity
    00:00 -7°C° 0 mm 8 mps 750 mmHg 74%
    01:00 -8°C° 0 mm 8 mps 751 mmHg 73%
    02:00 -8°C° 0 mm 8 mps 752 mmHg 71%
    03:00 -10°C° 0 mm 8 mps 753 mmHg 71%
    04:00 -10°C° 0 mm 8 mps 754 mmHg 70%
    05:00 -10°C° 0 mm 8 mps 755 mmHg 69%
    06:00 -11°C° 0 mm 8 mps 756 mmHg 69%
    07:00 -11°C° 0 mm 8 mps 757 mmHg 70%
    08:00 -11°C° 0 mm 7 mps 758 mmHg 70%
    09:00 -11°C° 0 mm 7 mps 759 mmHg 69%
    10:00 -9°C° 0 mm 7 mps 760 mmHg 68%
    11:00 -9°C° 0 mm 7 mps 760 mmHg 67%
    12:00 -9°C° 0 mm 6 mps 761 mmHg 67%
    13:00 -9°C° 0 mm 6 mps 761 mmHg 67%
    14:00 -9°C° 0 mm 6 mps 762 mmHg 67%
    15:00 -8°C° 0 mm 5 mps 762 mmHg 68%
    16:00 -10°C° 0 mm 5 mps 763 mmHg 69%
    17:00 -10°C° 0 mm 5 mps 764 mmHg 71%
    18:00 -10°C° 0 mm 4 mps 764 mmHg 72%
    19:00 -10°C° 0 mm 4 mps 765 mmHg 74%
    20:00 -9°C° 0 mm 3 mps 766 mmHg 75%
    21:00 -9°C° 0 mm 3 mps 766 mmHg 76%
    22:00 -10°C° 0 mm 3 mps 767 mmHg 77%
    23:00 -10°C° 0 mm 3 mps 767 mmHg 79%

    22 February, Friday

    Time Temperature Precipitation Wind Pressure Humidity
    00:00 -10°C° 0 mm 3 mps 768 mmHg 79%
    01:00 -9°C° 0 mm 2 mps 768 mmHg 80%
    02:00 -9°C° 0 mm 2 mps 769 mmHg 80%
    03:00 -9°C° 0 mm 2 mps 769 mmHg 80%
    04:00 -9°C° 0 mm 2 mps 770 mmHg 81%
    05:00 -10°C° 0 mm 2 mps 770 mmHg 81%
    06:00 -10°C° 0 mm 2 mps 771 mmHg 81%
    07:00 -10°C° 0 mm 2 mps 772 mmHg 81%
    08:00 -9°C° 0 mm 1 mps 772 mmHg 81%
    09:00 -9°C° 0 mm 2 mps 773 mmHg 76%
    10:00 -8°C° 0 mm 2 mps 773 mmHg 71%
    11:00 -6°C° 0 mm 2 mps 774 mmHg 66%
    12:00 -6°C° 0 mm 2 mps 774 mmHg 64%
    13:00 -5°C° 0 mm 2 mps 775 mmHg 63%
    14:00 -4°C° 0 mm 2 mps 775 mmHg 61%
    15:00 -5°C° 0 mm 2 mps 775 mmHg 65%
    16:00 -6°C° 0 mm 2 mps 776 mmHg 69%
    17:00 -6°C° 0 mm 2 mps 776 mmHg 72%
    18:00 -7°C° 0 mm 2 mps 776 mmHg 74%
    19:00 -7°C° 0 mm 2 mps 776 mmHg 75%
    20:00 -7°C° 0 mm 2 mps 777 mmHg 76%
    21:00 -8°C° 0 mm 2 mps 777 mmHg 76%
    22:00 -8°C° 0 mm 2 mps 777 mmHg 76%
    23:00 -8°C° 0 mm 2 mps 777 mmHg 76%
    Show more